Location: Praha
(50.0830°N, 14.4670°E)
Time: 16:42:47
(UTC+02:00)

ISS - Visible Passes

Search period start: 26 June 2022 00:00
Search period end: 06 July 2022 00:00
Orbit: 415 x 420 km, 51.6° (Epoch: 26 June)

Date Brightness Start Highest point End Pass type
(mag) Time Alt. Az. Time Alt. Az. Time Alt. Az.
28 Jun -1.8 04:09:26 10° S 04:11:58 20° SE 04:14:31 10° E visible
29 Jun -1.4 03:22:20 10° SSE 03:24:04 13° SE 03:25:47 10° ESE visible
30 Jun -3.0 04:09:03 10° SW 04:12:13 40° SSE 04:15:25 10° E visible
01 Jul -2.5 03:22:16 16° SSW 03:24:12 28° SE 03:27:09 10° E visible
02 Jul -2.1 02:35:45 19° SSE 02:36:14 19° SE 02:38:43 10° E visible
02 Jul -3.7 04:09:15 10° WSW 04:12:36 74° SSE 04:15:59 10° ENE visible
03 Jul -1.3 01:49:10 12° ESE 01:49:10 12° ESE 01:49:54 10° ESE visible
03 Jul -3.5 03:22:04 17° SW 03:24:29 55° SSE 03:27:48 10° ENE visible
04 Jul -3.1 02:35:26 30° S 02:36:24 38° SSE 02:39:34 10° E visible
04 Jul -3.6 04:09:41 10° W 04:13:03 75° N 04:16:27 10° ENE visible
05 Jul -2.5 01:48:46 26° SE 01:48:46 26° SE 01:51:16 10° E visible
05 Jul -3.8 03:21:39 11° WSW 03:24:52 89° N 03:28:15 10° ENE visible
